Location: Arleux
(50.3632°N, 2.8721°E)
Time: 09:03:15
(UTC+00:00)

MOS 1-B - Pass Details

Date: 15 December 2019
Orbit: 905 x 914 km, 99.4° (Epoch: 28 January)

Event Time Altitude Azimuth Distance (km) Brightness Sun altitude
Rises 05:22:10 0° 15° (NNE) 3,549 7.5 -21.0°
Reaches altitude 10° 05:24:35 10° 15° (NNE) 2,602 6.8 -20.6°
Maximum altitude 05:30:23 84° 289° (WNW) 919 4.2 -19.7°
Drops below altitude 10° 05:36:09 10° 202° (SSW) 2,582 6.6 -18.8°
Sets 05:38:33 0° 201° (SSW) 3,519 7.4 -18.4°
